Regional Weather Roundup
Issued by NWS

Home | Current Version | Previous Version | Text Only | Print | Product List | Glossary On
Versions: 1 2 3 4 5 6 7 8 9 10 11 12 13 14 15 16 17 18 19 20 21 22 23 24 25 26 27 28 29 30 31 32 33 34 35 36 37 38 39 40 41 42 43 44 45 46 47 48 49 50
000
ASUS44 KBMX 172110
RWRAL

ALABAMA REGIONAL WEATHER ROUNDUP
NATIONAL WEATHER SERVICE BIRMINGHAM AL
400 PM CDT THU AUG 17 2017

NOTE: "FAIR" INDICATES FEW OR NO CLOUDS BELOW 12,000 FEET
WITH NO SIGNIFICANT WEATHER AND/OR OBSTRUCTIONS TO VISIBILITY.

THE REMARK "TC" DENOTES TEMPERATURE IN DEGREES CELSIUS.

ALZ001>011-014-016>018-020-172200-
NORTH ALABAMA

CITY           SKY/WX    TMP DP  RH WIND       PRES   REMARKS
MUSCLE SHOALS  MOSUNNY   89  73  59 S9        29.97F HX  97
HUNTSVILLE     MOSUNNY   90  74  59 W9        29.99F HX  99
DECATUR        MOSUNNY   87  74  64 SW8       29.98F HX  95
HALEYVILLE     PTSUNNY   87  76  69 SW6       30.02F HX  97
GADSDEN        MOSUNNY   89  73  59 SW8       30.00F HX  97
$$

ALZ012-013-022-023-030>036-040>044-172200-
WEST CENTRAL ALABAMA

CITY           SKY/WX    TMP DP  RH WIND       PRES   REMARKS
TUSCALOOSA     SUNNY     92  75  57 SW8       29.99F HX 103
DEMOPOLIS      NOT AVBL
$$

ALZ015-024>026-033>036-041>044-172200-
CENTRAL ALABAMA

CITY           SKY/WX    TMP DP  RH WIND       PRES   REMARKS
BIRMINGHAM     PTSUNNY   90  71  53 W13       30.03F HX  96
MONTGOMERY     SUNNY     93  69  45 W10       30.02F HX  98
SHELBY CO ARPT MOSUNNY   90  74  59 S8        30.02F HX  99
MAXWELL AFB    SUNNY     92  72  52 W5        30.01F HX  99
GREENVILLE     FAIR      91  69  48 W7        30.03F HX  96
SELMA          NOT AVBL
PRATTVILLE     MOCLDY    91  72  54 W3        30.02F HX  98
BESSEMER       MOCLDY    88  74  63 W8        30.03F HX  96
TALLADEGA      FAIR      91  72  53 MISG      30.02F HX  99
PELL CITY      NOT AVBL
MARION         FAIR      91  74  57 SW9       30.01F HX 100
SYLACAUGA      PTSUNNY   90  74  58 W6        30.02F HX  99
$$

ALZ019-021-028-029-037-038-045>048-172200-
EAST CENTRAL ALABAMA

CITY           SKY/WX    TMP DP  RH WIND       PRES   REMARKS
ANNISTON       SUNNY     90  72  55 SW10      30.01F HX  97
ALEXANDER CITY MOSUNNY   89  72  57 SW6       30.04S HX  96
AUBURN         MOSUNNY   90  73  57 SW6       30.05F HX  98
$$

ALZ051>064-172200-
SOUTHWEST ALABAMA

CITY           SKY/WX    TMP DP  RH WIND       PRES   REMARKS
MOBILE         MOSUNNY   93  71  48 CALM      30.04F HX 100
BROOKLEY FIELD MOSUNNY   93  79  63 SE9       30.03F HX 110
EVERGREEN      MOSUNNY   92  72  51 VRB3      30.03F HX  99
$$

ALZ049-050-065>069-172200-
SOUTHEAST ALABAMA

CITY           SKY/WX    TMP DP  RH WIND       PRES   REMARKS
DOTHAN         MOSUNNY   92  75  57 N8        30.05F HX 103
OZARK          MOSUNNY   91  74  57 NW12G17   30.02F HX 101
TROY           MOSUNNY   88  75  65 CALM      30.03F HX  97
EUFAULA        FAIR      94  73  50 VRB3      30.00F HX 103
$$



USA.gov is the U.S. government's official web portal to all federal, state and local government web resources and services.